Flag for U.S.A. Weather past 2 weeks in Grand Prairie, Texas, U.S.A.

Now
34 °F

Sunny.


Feels Like: 34 °F
Forecast: 22 / 47 °F
Wind: No wind

Location: Grand Prairie Municipal Airport

Current Time: Mar 6, 2015 at 10:06:02 AM

Latest Report: Mar 6, 2015 at 8:50 AM


Visibility: 10 mi

Pressure: 30.61 "Hg

Humidity: 70%

Dew point: 25 °F

Location of Grand PrairieLocation

Historic Weather in Grand Prairie — Graph

°F

Grand Prairie temperature yesterday

Maximum temperature yesterday: 37 °F (at 3:50 PM)
Minimum temperature yesterday: 25 °F (at 7:50 AM)
Average temperature yesterday: 30 °F

Past Weeks' High & Low Weather Summary

 TemperatureHumidityPressure
High70 °F (Feb 20, 3:50 PM)100% (Feb 22, 11:50 AM)30.64 "Hg (Feb 22, 11:50 AM)
Low25 °F (Feb 27, 10:50 AM)47% (Feb 19, 1:50 PM)29.70 "Hg (Feb 20, 7:15 PM)
Average38 °F88%30.22 "Hg
* Reported Feb 19 8:50 AM — Mar 6 8:50 AM, Grand Prairie, Weather by CustomWeather, © 2015

Note: Actual official high and low records may vary slightly from our data, if they occured in-between our weather recording intervals... More about our weather records

Advertising

Grand Prairie weather history for previous 24 hours

 ConditionsComfort  
Time TempWeatherWind HumidityBarometerVisibility
8:50 AM
Fri, Mar 6
34 °FSunny.No wind70%30.61 "Hg10 mi
7:50 AM28 °FSunny.No wind86%30.60 "Hg10 mi
5:35 AM27 °FClear.No wind89%30.59 "Hg10 mi
5:15 AM27 °FClear.No wind87%30.59 "Hg10 mi
4:55 AM26 °FClear.No wind92%30.58 "Hg10 mi
4:35 AM27 °FClear.No wind88%30.58 "Hg10 mi
4:15 AM27 °FClear.No wind85%30.58 "Hg10 mi
3:55 AM28 °FClear.No wind85%30.58 "Hg10 mi
3:35 AM28 °FClear.No wind83%30.59 "Hg10 mi
3:15 AM29 °FClear.No wind80%30.59 "Hg10 mi
2:55 AM29 °FClear.No wind78%30.59 "Hg10 mi
2:35 AM30 °FClear.3 mph76%30.60 "Hg10 mi
2:15 AM29 °FClear.3 mph79%30.60 "Hg10 mi
1:55 AM30 °FClear.No wind79%30.61 "Hg10 mi
1:35 AM30 °FClear.3 mph79%30.61 "Hg10 mi
1:15 AM30 °FClear.3 mph77%30.61 "Hg10 mi
12:55 AM31 °FClear.5 mph75%30.61 "Hg10 mi
12:35 AM31 °FClear.3 mph78%30.61 "Hg10 mi
12:15 AM31 °FClear.No wind81%30.61 "Hg10 mi
11:55 PM
Thu, Mar 5
31 °FClear.3 mph82%30.61 "Hg10 mi
11:35 PM31 °FClear.No wind80%30.61 "Hg10 mi
11:15 PM32 °FClear.No wind79%30.62 "Hg10 mi
10:55 PM32 °FClear.No wind80%30.62 "Hg10 mi
10:35 PM32 °FClear.No wind79%30.62 "Hg10 mi
10:15 PM32 °FClear.No wind77%30.63 "Hg10 mi
9:35 PM33 °FClear.No wind82%30.61 "Hg10 mi
8:55 PM35 °FClear.No wind72%30.61 "Hg10 mi
8:35 PM34 °FClear.No wind66%30.61 "Hg10 mi
8:15 PM35 °FClear.No wind69%30.61 "Hg10 mi
7:55 PM36 °FClear.No wind59%30.60 "Hg10 mi
7:35 PM35 °FClear.No wind62%30.59 "Hg10 mi
7:15 PM35 °FClear.No wind61%30.59 "Hg10 mi
4:50 PM37 °FSunny.9 mph52%30.58 "Hg10 mi
3:50 PM37 °FSunny.9 mph52%30.58 "Hg10 mi
2:50 PM36 °FSunny.9 mph56%30.59 "Hg10 mi
1:50 PM36 °FSunny.9 mph56%30.60 "Hg10 mi
12:50 PM34 °FSunny.9 mph56%30.63 "Hg10 mi
11:50 AM32 °FSunny.12 mph60%30.64 "Hg10 mi
10:50 AM27 °FSunny.9 mph74%30.64 "Hg10 mi
Weather by CustomWeather, © 2015

See weather overviewHow to use our weather pages